STARLINK-1309 (45414 NORAD) Tracking and Keplerian Element Data

This shows tracking and keplerian element data for the satellite.

Feedback or suggestion? Click here.




ElementValue
Catalog45414
NameSTARLINK-1309
Epoch Orbit1887
Epoch Day197.25001157
Epoch Year2020
RAAN39.7595
Inclination52.9991
Eccentricity0.0001846
Argument of Perigee77.8192
Mean Anonmoly351.3382
Mean Motion15.05604706
Decay Rate-0.00032076
L11 45414U 20019BG 20197.25001157 -.00032076 00000-0 -21907-2 0 9991
L22 45414 52.9991 39.7595 0001846 77.8192 351.3382 15.05604706 18879

Live tracking and technical data element details for STARLINK-1309 (NORAD 45414). STARLINK-1309 can be tracked NOW for your location showing map with azimuth and elevation plus other details from your city location.

Track the satellite on the map from your city or location and see movement details for azimuth, elevation, latitude, longitude, range, height, and movement on the map or in text.







IsCatalogInMostPopularTable: catalog: 45414, numindb: 33
Update: records affected: 1



GetName: 45414 STARLINK-1309

Hit Count: updated at: Thu, 16 Jul 2020 02:26:24 GMT